Regional Weather Roundup
Issued by NWS Little Rock, AR

Home | Current Version | Previous Version | Text Only | Print | Product List | Glossary On
Versions: 1 2 3 4 5 6 7 8 9 10 11 12 13 14 15 16 17 18 19 20 21 22 23 24 25 26 27 28 29 30 31 32
000
ASUS44 KLZK 261405
RWRLZK

WEATHER ROUNDUP FOR ARKANSAS
NATIONAL WEATHER SERVICE LITTLE ROCK AR
900 AM CDT MON JUN 26 2017

NOTE: "FAIR" INDICATES FEW OR NO CLOUDS BELOW 12,000 FEET WITH NO
SIGNIFICANT WEATHER AND/OR OBSTRUCTIONS TO VISIBILITY.

ARZ001-003-010-029-261500-
NORTHWEST ARKANSAS

CITY           SKY/WX    TMP DP  RH WIND       PRES   REMARKS
FAYETTEVILLE   PTSUNNY   68  62  81 NE3       30.24S
FORT SMITH     MOSUNNY   74  65  73 NE5       30.21S
HARRISON       CLOUDY    67  56  67 E6        30.27R
BENTONVILLE    CLOUDY    70  57  64 E3        30.25F
ROGERS         CLOUDY    68  58  70 E10       30.25S
SILOAM SPGS    CLOUDY    72  61  68 E6        30.24R
HIGHFILL       MOSUNNY   73  62  68 E7        30.25R
SPRINGDALE     PTSUNNY   70  61  73 E9        30.26S
$$

ARZ004-005-016-261500-
NORTH CENTRAL ARKANSAS

CITY           SKY/WX    TMP DP  RH WIND       PRES   REMARKS
BATESVILLE     MOSUNNY   72  57  60 N3        30.24S
FLIPPIN        CLOUDY    70  54  56 E3        30.23S
MTN HOME       CLOUDY    68  57  68 E6        30.25S
$$

ARZ040-041-261500-
WEST CENTRAL ARKANSAS

CITY           SKY/WX    TMP DP  RH WIND       PRES   REMARKS
MENA           CLOUDY    72  68  88 CALM      30.23R
MOUNT IDA      MOSUNNY   72  63  73 CALM      30.20R
$$

ARZ009-017-025-026-028-261500-
NORTHEAST ARKANSAS

CITY           SKY/WX    TMP DP  RH WIND       PRES   REMARKS
JONESBORO      CLOUDY    73  59  61 NE8       30.23R
WALNUT RIDGE   CLOUDY    72  57  60 N10       30.25R
BLYTHEVILLE    CLOUDY    72  58  61 NE5       30.23R
$$

ARZ022-023-033-042-044-261500-
CENTRAL ARKANSAS

CITY           SKY/WX    TMP DP  RH WIND       PRES   REMARKS
LITTLE ROCK    CLOUDY    73  65  75 NE3       30.21R
N LITTLE ROCK    N/A     75  64  70 CALM      30.21R
JACKSONVILLE   PTSUNNY   73  65  75 NE3       30.21R
CONWAY           N/A     75  66  73 NE6       30.20R
SEARCY         CLOUDY    75  63  66 N9        30.24R
HOT SPRINGS    CLOUDY    75  66  73 CALM      30.21R
RUSSELLVILLE   PTSUNNY   72  65  78 CALM      30.21R
CLINTON        FAIR      73  61  64 CALM      30.24R
$$

ARZ036-261500-
EAST ARKANSAS

CITY           SKY/WX    TMP DP  RH WIND       PRES   REMARKS
WEST MEMPHIS   CLOUDY    71  65  81 N3        30.20S
$$

ARZ050-053-066-070-073-261500-
SOUTHWEST ARKANSAS

CITY           SKY/WX    TMP DP  RH WIND       PRES   REMARKS
CAMDEN         CLOUDY    73  64  73 N5        30.20S
TEXARKANA      CLOUDY    72  67  84 NE3       30.20R
EL DORADO      SUNNY     75  64  68 N3        30.20R
DE QUEEN       CLOUDY    71  68  90 CALM      30.19R
$$

ARZ056-057-069-261500-
SOUTHEAST ARKANSAS

CITY           SKY/WX    TMP DP  RH WIND       PRES   REMARKS
PINE BLUFF     CLOUDY    70  67  90 NE3       30.20S
STUTTGART      CLOUDY    72  57  60 NE5       30.22R
MONTICELLO     MOSUNNY   75  64  68 CALM      30.20R

$$






USA.gov is the U.S. government's official web portal to all federal, state and local government web resources and services.